Home > Weather > Aalborg > Past weeks

Flag for Denmark Past Weather in Aalborg, Denmark — Yesterday and Last 2 Weeks

Now
59 °F

Sprinkles. Partly sunny.


Feels Like: 58 °F
Forecast: 56 / 66 °F
Wind: 8 mph from Northwest

Location: Aalborg Airport

Current Time: Jun 25, 2016 at 11:29:13 PM

Latest Report: Jun 25, 2016 at 10:50 PM


Visibility: N/A

Pressure: 29.86 "Hg

Humidity: 94%

Dew Point: 57 °F

Location of AalborgLocation

Past Weather in Aalborg — Graph

°F

Aalborg Temperature Yesterday

Maximum temperature yesterday: 79 °F (at 4:20 PM)
Minimum temperature yesterday: 61 °F (at 11:20 PM)
Average temperature yesterday: 68 °F

High & Low Weather Summary for the Past Weeks

 TemperatureHumidityPressure
High79 °F (Jun 24, 4:20 PM)100% (Jun 14, 11:50 PM)30.21 "Hg (Jun 14, 11:50 PM)
Low46 °F (Jun 12, 3:50 AM)30% (Jun 12, 12:20 PM)29.47 "Hg (Jun 15, 4:50 AM)
Average60 °F80%29.84 "Hg
* Reported Jun 10 10:20 PM — Jun 25 10:20 PM, Aalborg, Weather by CustomWeather, © 2016

Note: Actual official high and low records may vary slightly from our data, if they occured in-between our weather recording intervals... More about our weather records

Advertising

Aalborg Weather History for the Previous 24 Hours

Scroll right to see more
 ConditionsComfort  
Time TempWeatherWind HumidityBarometerVisibility
10:20 PM
Sat, Jun 25
59 °FThunderstorms. Broken clouds.9 mph94%29.89 "Hg4 mi
10:02 PM59 °FThunderstorms. Broken clouds.7 mph88%29.89 "HgN/A
9:20 PM59 °FBroken clouds.9 mph94%29.89 "HgN/A
8:50 PM59 °FBroken clouds.9 mph94%29.89 "Hg4 mi
8:20 PM59 °FSprinkles. Partly sunny.7 mph94%29.92 "Hg4 mi
7:57 PM61 °FSprinkles. Partly sunny.7 mph94%29.95 "HgN/A
7:20 PM61 °FSprinkles. Broken clouds.5 mph88%29.92 "HgN/A
6:50 PM61 °FSprinkles. Partly sunny.7 mph88%29.95 "HgN/A
6:20 PM61 °FPartly sunny.7 mph88%29.95 "HgN/A
5:50 PM63 °FPartly sunny.6 mph83%29.95 "HgN/A
5:20 PM63 °FPartly sunny.6 mph83%29.95 "HgN/A
4:50 PM64 °FPartly sunny.6 mph83%29.95 "HgN/A
4:20 PM64 °FPartly sunny.6 mph83%29.98 "HgN/A
3:50 PM63 °FPartly sunny.1 mph88%30.01 "HgN/A
3:20 PM64 °FSprinkles. Broken clouds.7 mph78%29.98 "HgN/A
2:50 PM64 °FBroken clouds.5 mph78%30.04 "HgN/A
2:20 PM66 °FPartly sunny.6 mph78%30.01 "HgN/A
1:50 PM64 °FPartly sunny.3 mph78%30.01 "HgN/A
1:20 PM64 °FPartly sunny.5 mph78%30.01 "HgN/A
12:50 PM64 °FPartly sunny.2 mph73%30.04 "HgN/A
12:20 PM63 °FPartly sunny.5 mph83%30.04 "HgN/A
11:50 AM63 °FPartly sunny.1 mph83%30.04 "HgN/A
11:20 AM63 °FPartly sunny.2 mph83%30.04 "HgN/A
10:50 AM63 °FPartly sunny.1 mph77%30.04 "HgN/A
10:20 AM63 °FPartly sunny.5 mph77%30.04 "HgN/A
9:50 AM61 °FPartly sunny.5 mph83%30.04 "HgN/A
9:20 AM61 °FPartly sunny.6 mph83%30.04 "HgN/A
8:50 AM61 °FPartly sunny.3 mph88%30.04 "HgN/A
8:20 AM61 °FPartly sunny.No wind88%30.04 "HgN/A
7:50 AM61 °FPartly sunny.6 mph83%30.04 "HgN/A
7:20 AM61 °FPartly sunny.6 mph83%30.04 "HgN/A
6:50 AM59 °FPartly sunny.3 mph88%30.04 "HgN/A
6:20 AM59 °FPartly sunny.3 mph88%30.01 "HgN/A
5:50 AM59 °FPartly sunny.5 mph88%30.04 "HgN/A
5:20 AM59 °FPassing clouds.2 mph88%30.04 "HgN/A
4:50 AM59 °FPassing clouds.6 mph88%30.04 "HgN/A
4:20 AM59 °FPassing clouds.5 mph88%30.04 "HgN/A
3:50 AM59 °FPassing clouds.5 mph88%30.04 "HgN/A
3:20 AM59 °FPassing clouds.6 mph88%30.04 "HgN/A
2:50 AM59 °FPassing clouds.6 mph94%30.04 "HgN/A
2:20 AM59 °FPassing clouds.6 mph94%30.04 "HgN/A
1:50 AM59 °FPassing clouds.6 mph94%30.04 "HgN/A
1:20 AM61 °FPassing clouds.5 mph94%30.04 "HgN/A
12:50 AM61 °FPassing clouds.5 mph94%30.04 "HgN/A
12:20 AM63 °FPassing clouds.6 mph88%30.04 "HgN/A
11:50 PM
Fri, Jun 24
63 °FPassing clouds.6 mph88%30.04 "HgN/A
11:20 PM61 °FPassing clouds.6 mph88%30.01 "HgN/A
Weather by CustomWeather, © 2016

See weather overviewHow to use our weather pages